KI4SSU Weather Reports


Display with metric or nautical units.
time (UTC)temp
F
wind
direction
speed
MPH
gust
MPH
rain 1hr
in
rain 24hr
in
rain mn
in
humidity
%
barometer
mb
20260506024119 70 313 8.0 13.0 0.00 0.00 0.00
20260506023119 70 359 5.0 3.0 0.00 0.00 0.00
20260506022619 70 339 4.0 10.0 0.00 0.00 0.00
20260506022119 70 320 6.0 15.0 0.00 0.00 0.00
20260506021119 71 359 4.0 9.0 0.00 0.00 0.00
20260506020619 71 311 4.0 8.0 0.00 0.00 0.00
20260506020119 71 352 7.0 10.0 0.00 0.00 0.00
20260506015619 71 349 5.0 8.0 0.00 0.00 0.00
20260506015119 72 322 4.0 10.0 0.00 0.00 0.00
20260506014619 72 352 7.0 7.0 0.00 0.00 0.00
20260506014120 72 4 5.0 3.0 0.00 0.00 0.00
20260506013619 72 359 6.0 8.0 0.00 0.00 0.00
20260506013119 73 348 5.0 7.0 0.00 0.00 0.00
20260506012619 73 23 5.0 8.0 0.00 0.00 0.00
20260506011620 73 348 4.0 6.0 0.00 0.00 0.00
20260506011120 74 62 0.0 0.0 0.00 0.00 0.00
20260506010620 74 341 7.0 12.0 0.00 0.00 0.00
20260506010119 75 325 5.0 5.0 0.00 0.00 0.00
20260506005619 76 37 5.0 2.0 0.00 0.00 0.00
20260506005119 76 18 3.0 5.0 0.00 0.00 0.00
20260506004619 76 32 3.0 2.0 0.00 0.00 0.00
20260506004119 77 356 4.0 5.0 0.00 0.00 0.00
20260506003119 78 155 6.0 5.0 0.00 0.00 0.00
20260506002620 78 359 4.0 4.0 0.00 0.00 0.00
20260506002119 79 7 5.0 4.0 0.00 0.00 0.00
20260506001119 79 6 5.0 8.0 0.00 0.00 0.00
20260506000119 80 348 4.0 4.0 0.00 0.00 0.00
20260505235619 81 320 4.0 7.0 0.00 0.00 0.00
20260505235119 81 321 7.0 8.0 0.00 0.00 0.00
20260505234620 82 18 7.0 6.0 0.00 0.00 0.00
20260505234120 82 353 7.0 6.0 0.00 0.00 0.00
20260505233619 84 10 6.0 9.0 0.00 0.00 0.00
20260505233119 84 356 6.0 6.0 0.00 0.00 0.00
20260505232620 85 346 5.0 7.0 0.00 0.00 0.00
20260505232119 86 349 5.0 4.0 0.00 0.00 0.00
20260505231620 86 28 8.0 13.0 0.00 0.00 0.00
20260505231119 87 306 7.0 10.0 0.00 0.00 0.00
20260505230120 89 325 5.0 6.0 0.00 0.00 0.00
20260505225619 90 322 3.0 10.0 0.00 0.00 0.00
20260505224620 92 282 3.0 3.0 0.00 0.00 0.00
20260505224120 92 39 6.0 6.0 0.00 0.00 0.00
20260505223120 92 327 5.0 8.0 0.00 0.00 0.00
20260505222620 92 359 6.0 7.0 0.00 0.00 0.00
20260505222120 94 336 3.0 3.0 0.00 0.00 0.00
20260505221620 95 17 5.0 5.0 0.00 0.00 0.00
20260505221120 96 279 4.0 7.0 0.00 0.00 0.00
20260505220620 96 358 3.0 4.0 0.00 0.00 0.00
20260505215620 96 272 2.0 7.0 0.00 0.00 0.00
20260505215120 97 296 1.0 2.0 0.00 0.00 0.00
20260505214120 96 244 3.0 4.0 0.00 0.00 0.00
20260505213620 96 242 0.0 7.0 0.00 0.00 0.00
20260505213121 96 201 3.0 6.0 0.00 0.00 0.00
20260505212620 95 186 0.0 0.0 0.00 0.00 0.00
20260505211620 95 331 2.0 3.0 0.00 0.00 0.00
20260505210620 95 215 4.0 4.0 0.00 0.00 0.00
20260505205621 95 255 5.0 4.0 0.00 0.00 0.00
20260505205120 94 272 5.0 7.0 0.00 0.00 0.00
20260505202121 92 245 6.0 9.0 0.00 0.00 0.00
20260505201121 94 197 6.0 12.0 0.00 0.00 0.00
20260505195120 94 215 5.0 4.0 0.00 0.00 0.00
20260505194621 94 170 5.0 8.0 0.00 0.00 0.00
20260505194121 94 245 7.0 8.0 0.00 0.00 0.00
20260505193621 94 217 4.0 9.0 0.00 0.00 0.00
20260505193120 94 232 3.0 4.0 0.00 0.00 0.00
20260505192620 94 206 5.0 10.0 0.00 0.00 0.00
20260505192121 93 229 6.0 8.0 0.00 0.00 0.00
20260505191621 92 260 5.0 6.0 0.00 0.00 0.00
20260505191120 92 180 6.0 8.0 0.00 0.00 0.00
20260505190620 91 246 7.0 6.0 0.00 0.00 0.00
20260505190121 92 293 3.0 6.0 0.00 0.00 0.00
20260505185620 91 239 6.0 9.0 0.00 0.00 0.00
20260505185120 91 173 4.0 7.0 0.00 0.00 0.00
20260505184621 91 306 8.0 9.0 0.00 0.00 0.00
20260505184120 90 260 5.0 6.0 0.00 0.00 0.00
20260505183620 91 276 7.0 7.0 0.00 0.00 0.00
20260505182621 88 229 6.0 7.0 0.00 0.00 0.00
20260505182121 87 224 5.0 8.0 0.00 0.00 0.00
20260505181121 87 255 7.0 11.0 0.00 0.00 0.00
20260505180621 87 266 5.0 7.0 0.00 0.00 0.00
20260505175121 87 263 8.0 6.0 0.00 0.00 0.00
20260505174621 86 183 5.0 9.0 0.00 0.00 0.00
20260505173621 86 221 5.0 11.0 0.00 0.00 0.00
20260505172621 85 227 8.0 9.0 0.00 0.00 0.00
20260505171621 86 242 6.0 8.0 0.00 0.00 0.00
20260505170621 85 166 6.0 8.0 0.00 0.00 0.00
20260505165622 83 244 6.0 5.0 0.00 0.00 0.00
20260505165121 85 228 6.0 11.0 0.00 0.00 0.00
20260505164621 86 228 7.0 10.0 0.00 0.00 0.00
20260505164121 84 218 5.0 5.0 0.00 0.00 0.00
20260505163621 85 213 6.0 14.0 0.00 0.00 0.00
20260505163121 84 245 5.0 9.0 0.00 0.00 0.00
20260505162621 83 232 6.0 6.0 0.00 0.00 0.00
20260505162121 83 245 6.0 15.0 0.00 0.00 0.00
20260505161621 83 235 5.0 11.0 0.00 0.00 0.00
20260505160621 80 177 8.0 7.0 0.00 0.00 0.00
20260505160121 81 217 6.0 8.0 0.00 0.00 0.00
20260505153122 79 237 4.0 6.0 0.00 0.00 0.00
20260505152621 79 222 7.0 8.0 0.00 0.00 0.00
20260505152122 78 232 6.0 6.0 0.00 0.00 0.00
20260505151621 78 255 5.0 10.0 0.00 0.00 0.00
20260505151121 77 297 8.0 5.0 0.00 0.00 0.00
20260505150621 77 232 6.0 9.0 0.00 0.00 0.00
20260505150121 77 235 6.0 10.0 0.00 0.00 0.00
20260505140621 75 231 9.0 14.0 0.00 0.00 0.00
20260505140121 75 249 4.0 3.0 0.00 0.00 0.00
20260505130122 71 8 4.0 3.0 0.00 0.00 0.00
20260505124622 71 256 5.0 5.0 0.00 0.00 0.00
20260505123622 71 234 3.0 3.0 0.00 0.00 0.00
20260505123122 70 221 3.0 7.0 0.00 0.00 0.00
20260505122622 70 153 4.0 8.0 0.00 0.00 0.00
20260505122122 71 242 4.0 11.0 0.00 0.00 0.00
20260505121622 70 211 4.0 9.0 0.00 0.00 0.00
20260505121122 70 190 7.0 5.0 0.00 0.00 0.00
20260505120622 70 241 5.0 4.0 0.00 0.00 0.00
20260505120122 70 227 6.0 8.0 0.00 0.00 0.00
20260505115622 70 260 5.0 10.0 0.00 0.00 0.00
20260505115122 70 238 5.0 5.0 0.00 0.00 0.00
20260505114622 70 214 5.0 9.0 0.00 0.00 0.00
20260505114122 70 260 4.0 8.0 0.00 0.00 0.00
20260505113622 70 207 4.0 3.0 0.00 0.00 0.00
20260505113122 70 210 6.0 4.0 0.00 0.00 0.00
20260505112622 70 245 4.0 4.0 0.00 0.00 0.00
20260505112122 70 229 8.0 10.0 0.00 0.00 0.00
20260505111622 70 251 4.0 7.0 0.00 0.00 0.00
20260505111122 70 217 4.0 9.0 0.00 0.00 0.00
20260505110122 70 215 5.0 7.0 0.00 0.00 0.00
20260505102122 71 221 5.0 4.0 0.00 0.00 0.00
20260505101622 71 225 6.0 12.0 0.00 0.00 0.00
20260505101123 71 267 5.0 8.0 0.00 0.00 0.00
20260505100622 71 234 5.0 9.0 0.00 0.00 0.00
20260505100122 71 204 6.0 9.0 0.00 0.00 0.00
20260505095622 71 238 5.0 6.0 0.00 0.00 0.00
20260505095123 71 227 3.0 5.0 0.00 0.00 0.00
20260505094622 71 177 6.0 4.0 0.00 0.00 0.00
20260505094123 71 160 7.0 8.0 0.00 0.00 0.00
20260505093623 71 263 5.0 9.0 0.00 0.00 0.00
20260505093122 71 229 5.0 9.0 0.00 0.00 0.00
20260505092123 71 266 5.0 8.0 0.00 0.00 0.00
20260505091622 71 213 2.0 0.0 0.00 0.00 0.00
20260505091122 71 218 6.0 8.0 0.00 0.00 0.00
20260505090622 71 229 4.0 4.0 0.00 0.00 0.00
20260505090123 71 182 6.0 3.0 0.00 0.00 0.00
20260505085622 71 245 7.0 8.0 0.00 0.00 0.00
20260505085122 71 239 4.0 14.0 0.00 0.00 0.00
20260505084623 71 217 5.0 8.0 0.00 0.00 0.00
20260505084122 72 245 7.0 12.0 0.00 0.00 0.00
20260505083622 72 148 6.0 10.0 0.00 0.00 0.00
20260505083122 72 200 6.0 13.0 0.00 0.00 0.00
20260505082623 72 197 5.0 12.0 0.00 0.00 0.00
20260505082122 72 203 10.0 12.0 0.00 0.00 0.00
20260505081623 72 203 7.0 10.0 0.00 0.00 0.00
20260505081123 72 186 8.0 8.0 0.00 0.00 0.00
20260505080623 72 200 7.0 10.0 0.00 0.00 0.00
20260505080123 72 224 7.0 10.0 0.00 0.00 0.00
20260505075623 72 218 7.0 6.0 0.00 0.00 0.00
20260505075123 73 359 6.0 5.0 0.00 0.00 0.00
20260505074623 73 259 9.0 13.0 0.00 0.00 0.00
20260505074123 73 241 6.0 6.0 0.00 0.00 0.00
20260505073623 73 207 8.0 10.0 0.00 0.00 0.00
20260505073123 73 225 6.0 7.0 0.00 0.00 0.00
20260505072623 73 221 6.0 6.0 0.00 0.00 0.00
20260505072123 73 182 6.0 5.0 0.00 0.00 0.00
20260505071623 73 275 5.0 7.0 0.00 0.00 0.00
20260505071209 73 204 6.0 5.0 0.00 0.00 0.00
20260505071123 73 204 6.0 5.0 0.00 0.00 0.00
20260505070623 73 270 5.0 6.0 0.00 0.00 0.00
20260505070123 74 224 6.0 7.0 0.00 0.00 0.00
20260505065623 74 210 5.0 6.0 0.00 0.00 0.00
20260505065123 73 153 6.0 5.0 0.00 0.00 0.00
20260505064623 74 199 4.0 6.0 0.00 0.00 0.00
20260505064123 74 213 5.0 11.0 0.00 0.00 0.00
20260505063623 74 203 8.0 8.0 0.00 0.00 0.00
20260505063123 74 231 5.0 7.0 0.00 0.00 0.00
20260505062623 74 207 7.0 6.0 0.00 0.00 0.00
20260505062123 74 234 7.0 11.0 0.00 0.00 0.00
20260505061623 74 204 8.0 11.0 0.00 0.00 0.00
20260505061123 74 228 5.0 7.0 0.00 0.00 0.00
20260505060623 74 211 5.0 11.0 0.00 0.00 0.00
20260505055623 74 229 4.0 3.0 0.00 0.00 0.00
20260505055124 75 231 5.0 8.0 0.00 0.00 0.00
20260505054623 75 217 6.0 8.0 0.00 0.00 0.00
20260505054123 75 220 5.0 4.0 0.00 0.00 0.00
20260505053624 75 241 4.0 5.0 0.00 0.00 0.00
20260505053123 76 224 5.0 8.0 0.00 0.00 0.00
20260505052623 76 208 3.0 9.0 0.00 0.00 0.00
20260505052123 76 200 5.0 7.0 0.00 0.00 0.00
20260505051624 76 267 3.0 3.0 0.00 0.00 0.00
20260505051123 76 224 4.0 4.0 0.00 0.00 0.00
20260505050623 76 197 3.0 14.0 0.00 0.00 0.00
20260505050229 76 256 5.0 7.0 0.00 0.00 0.00
20260505050124 76 256 5.0 7.0 0.00 0.00 0.00
20260505041623 75 263 5.0 5.0 0.00 0.00 0.00
20260505041123 75 241 6.0 6.0 0.00 0.00 0.00
20260505040623 75 152 3.0 4.0 0.00 0.00 0.00
20260505040123 75 241 2.0 1.0 0.00 0.00 0.00
20260505035623 75 173 4.0 3.0 0.00 0.00 0.00
20260505035124 75 242 6.0 7.0 0.00 0.00 0.00
20260505034623 75 297 2.0 4.0 0.00 0.00 0.00
20260505034123 75 256 4.0 10.0 0.00 0.00 0.00
20260505033623 75 235 4.0 3.0 0.00 0.00 0.00
20260505033123 75 306 5.0 5.0 0.00 0.00 0.00
20260505032623 75 87 6.0 2.0 0.00 0.00 0.00
20260505032123 75 276 4.0 7.0 0.00 0.00 0.00
20260505031624 75 225 6.0 5.0 0.00 0.00 0.00
20260505031206 76 82 2.0 4.0 0.00 0.00 0.00
20260505031124 76 82 2.0 4.0 0.00 0.00 0.00
20260505030624 76 269 4.0 4.0 0.00 0.00 0.00
20260505030124 75 235 3.0 4.0 0.00 0.00 0.00
20260505025624 75 176 3.0 4.0 0.00 0.00 0.00
20260505025124 75 183 4.0 4.0 0.00 0.00 0.00
20260505024624 75 200 2.0 5.0 0.00 0.00 0.00